Flag for Germany Weather past 2 weeks in Pirmasens, Rhineland-Palatinate, Germany

Now
44 °F

Sunny.


Feels Like: 44 °F
Forecast: 36 / 54 °F
Wind: 2 mph from Northeast

Location: Ramstein

Current Time: Apr 18, 2015 at 9:44:37 AM

Latest Report: Apr 18, 2015 at 8:58 AM


Visibility: N/A

Pressure: 30.25 "Hg

Humidity: 69%

Dew point: 34 °F

Location of PirmasensLocation

Historic Weather in Pirmasens — Graph

°F

Pirmasens temperature yesterday

Maximum temperature yesterday: 57 °F (at 5:58 PM)
Minimum temperature yesterday: 46 °F (at 11:58 PM)
Average temperature yesterday: 52 °F

Past Weeks' High & Low Weather Summary

 TemperatureHumidityPressure
High79 °F (Apr 15, 4:58 PM)100% (Apr 3, 7:58 AM)30.67 "Hg (Apr 3, 7:58 AM)
Low22 °F (Apr 7, 6:58 AM)17% (Apr 10, 5:58 PM)29.87 "Hg (Apr 17, 5:58 AM)
Average48 °F70%30.24 "Hg
* Reported Apr 3 7:58 AM — Apr 18 7:58 AM, Pirmasens, Weather by CustomWeather, © 2015

Note: Actual official high and low records may vary slightly from our data, if they occured in-between our weather recording intervals... More about our weather records

Advertising

Pirmasens weather history for previous 24 hours

 ConditionsComfort  
Time TempWeatherWind HumidityBarometerVisibility
7:58 AM
Sat, Apr 18
36 °FSunny.2 mph100%30.24 "HgN/A
6:58 AM28 °FClear.No wind100%30.23 "HgN/A
5:58 AM30 °FClear.2 mph99%30.22 "HgN/A
4:58 AM31 °FClear.No wind96%30.22 "HgN/A
3:58 AM33 °FClear.2 mph91%30.21 "HgN/A
2:58 AM38 °FClear.1 mph80%30.19 "HgN/A
12:58 AM45 °FClear.6 mph61%30.16 "HgN/A
11:58 PM
Fri, Apr 17
46 °FClear.9 mph57%30.14 "HgN/A
10:58 PM48 °FClear.9 mph54%30.11 "HgN/A
9:58 PM49 °FClear.14 mph54%30.09 "HgN/A
8:58 PM52 °FOvercast.13 mph51%30.06 "HgN/A
7:58 PM55 °FPassing clouds.13 mph47%30.01 "HgN/A
6:58 PM57 °FSunny.3 mph48%29.98 "HgN/A
6:02 PM55 °FSunny.6 mph51%29.97 "HgN/A
5:58 PM57 °FPassing clouds.6 mph48%29.98 "HgN/A
4:58 PM54 °FPassing clouds.6 mph51%29.99 "HgN/A
3:58 PM52 °FPassing clouds.9 mph50%30.00 "HgN/A
2:58 PM55 °FPassing clouds.10 mph57%29.98 "HgN/A
1:58 PM52 °FLight rain. Passing clouds.10 mph72%29.97 "HgN/A
12:58 PM51 °FLight rain. Overcast.6 mph70%29.99 "HgN/A
11:58 AM55 °FScattered clouds.15 mph59%29.95 "HgN/A
10:58 AM54 °FPassing clouds.8 mph70%29.94 "HgN/A
9:58 AM56 °FSunny.9 mph62%29.92 "HgN/A
Weather by CustomWeather, © 2015

See weather overviewHow to use our weather pages